Regional Weather Roundup
Issued by NWS

Home | Current Version | Previous Version | Graphics & Text | Print | Product List | Glossary On
Versions: 1 2 3 4 5 6 7 8 9 10 11 12 13 14 15 16 17 18 19 20 21 22 23 24 25 26 27 28 29 30 31 32 33 34 35 36 37 38 39 40 41 42 43 44 45 46 47 48 49 50
000
ASUS43 KDMX 280908
RWRIA

WEATHER ROUNDUP FOR IOWA
NATIONAL WEATHER SERVICE DES MOINES IA
400 AM CDT THU APR 28 2016

NOTE: "FAIR" INDICATES FEW OR NO CLOUDS BELOW 12,000 FEET WITH NO
SIGNIFICANT WEATHER AND/OR OBSTRUCTIONS TO VISIBILITY.

* - THESE STATIONS ARE NOT NWS STATIONS...THUS NOT UNDER NWS
QUALITY CONTROL.  THEY ALSO DO NOT REPORT WEATHER SUCH
AS PRECIPITATION OR FOG.

IAZ001>003-012>014-020>022-031>034-043>046-281000-
   NORTHWEST IOWA

CITY           SKY/WX    TMP DP  RH WIND       PRES   REMARKS
CARROLL *      CLOUDY    46  46 100 S5        29.66R FOG
CHEROKEE *     RAIN      41  41 100 NE14      29.71S
DENISON *      CLOUDY    46  46 100 N10       29.65R FOG
LE MARS *      CLOUDY    43  41  93 NE12      29.73R
ORANGE CITY *  DRIZZLE   41  39  93 NE14      29.72S
SHELDON *      LGT RAIN  41  41 100 NE21      29.72S
SIOUX CITY     LGT RAIN  45  40  82 NE13      29.71R
SPENCER        LGT RAIN  41  38  89 NE22      29.73S
STORM LAKE *   LGT RAIN  41  41 100 NE22G28   29.69R
$$

IAZ055>058-069>071-079>083-090>094-281000-
   SOUTHWEST IOWA

CITY           SKY/WX    TMP DP  RH WIND       PRES   REMARKS
ATLANTIC *     CLOUDY    45  45 100 CALM      29.67R
AUDUBON *      DRIZZLE   46  43  87 SW5       29.67R
CLARINDA *       N/A    N/A N/A N/A MISG        N/A
COUNCIL BLFS * CLOUDY    45  45 100 CALM      29.68R FOG
CRESTON *      CLOUDY    45  45 100 S6        29.67R
HARLAN  *      CLOUDY    45  45 100 SW6       29.70R
LAMONI         CLOUDY    46  42  86 SW13      29.68R
RED OAK *      CLOUDY    45  45 100 NW6       29.67R FOG
SHENANDOAH *   CLOUDY    46  46 100 W8        29.69R
$$

IAZ047>049-059>061-072>074-084-281000-
   CENTRAL IOWA

CITY           SKY/WX    TMP DP  RH WIND       PRES   REMARKS
AMES           CLOUDY    45  44  97 SE5       29.68R
ANKENY *       CLOUDY    46  45  93 CALM      29.68R
BOONE *        CLOUDY    46  45  93 S6        29.67R
CHARITON *     CLOUDY    48  45  87 SW5       29.68R
DES MOINES     CLOUDY    48  41  76 SW3       29.68R
GRINNELL*      CLOUDY    48  46  93 E3        29.70R FOG
KNOXVILLE *    FOG       46  46 100 S5        29.67R VSB 0
MARSHALLTOWN   LGT RAIN  47  45  93 E8        29.70R FOG
NEWTON *       CLOUDY    48  48 100 SE5       29.68R FOG
PELLA *        CLOUDY    48  48 100 CALM      29.70R FOG
$$

IAZ004>006-015-016-023>025-035-036-281000-
   NORTH CENTRAL IOWA

CITY           SKY/WX    TMP DP  RH WIND       PRES   REMARKS
ALGONA *       CLOUDY    43  43 100 NE13      29.73S FOG
CLARION *      CLOUDY    43  43 100 E15       29.70S
ESTHERVILLE    CLOUDY    40  39  97 NE15      29.75S FOG     WCI  32
FORT DODGE *   CLOUDY    43  39  87 E13       29.69R
MASON CITY     LGT RAIN  41  39  93 NE13      29.76R
FOREST CITY *  DRIZZLE   41  37  87 NE10G16   29.75R
WEBSTER CITY * CLOUDY    45  45 100 E14       29.67S FOG
IOWA FALLS *   CLOUDY    46  45  93 E13       29.71F FOG
$$

IAZ007>011-017>019-026>030-037>042-050>054-066-281000-
   NORTHEAST IOWA

CITY           SKY/WX    TMP DP  RH WIND       PRES   REMARKS
CEDAR RAPIDS   CLOUDY    48 N/A N/A E8        29.71R HAZE
CHARLES CITY * CLOUDY    41  41 100 E15       29.75S
CLINTON *      MOCLDY    47  45  93 E9        29.72R
DECORAH *      MOCLDY    41  32  70 E16       29.76R
DUBUQUE        CLOUDY    44  41  89 NE12      29.73R
MONTICELLO *   CLOUDY    46  45  93 E8        29.74R
OELWEIN *      CLOUDY    43  43 100 E10G16    29.75R
WATERLOO       CLOUDY    45  41  86 E14       29.73R
$$

IAZ064-065-067-068-078-281000-
   EAST CENTRAL IOWA

CITY           SKY/WX    TMP DP  RH WIND       PRES   REMARKS
DAVENPORT      MOCLDY    49  46  90 SE9       29.72R
IOWA CITY      CLOUDY    50  48  93 E6        29.72R FOG
MT. PLEASANT * PTCLDY    50  50 100 W8        29.71R FOG
MUSCATINE *    MOCLDY    50  48  93 E5        29.71S FOG
QUAD CITIES    CLOUDY    49  46  90 E6        29.71R FOG
$$

IAZ062-063-075>077-085>089-095>099-281000-
   SOUTHEAST IOWA

CITY           SKY/WX    TMP DP  RH WIND       PRES   REMARKS
BURLINGTON     CLEAR     48  48 100 S7        29.70R
FAIRFIELD *    PTCLDY    48  48 100 S6        29.70R
FORT MADISON * CLEAR     52  50  93 S7        29.72R FOG
KEOKUK *       CLEAR     48  48 100 CALM      29.71R FOG
OSKALOOSA *    FOG       46  46 100 S6        29.69S VSB 1/4
OTTUMWA        CLEAR     46  45  96 S6        29.68S
WASHINGTON *   FOG       46  46 100 CALM      29.72R VSB 0
$$

ABBREVIATIONS USED IN REMARKS
   TC - TEMPERATURES IN CELSIUS
  WCI - WIND CHILL INDEX
   HX - HEAT INDEX
  VSB - VISIBILITY
$$





USA.gov is the U.S. government's official web portal to all federal, state and local government web resources and services.